Current weather by "City, St" or "zip code"  
 
Advertise Here

Current Conditions: Scottsdale Airport, AZ

Overcast


46.0 F

Last Updated on Jan 25 2021, 2:53 am MST
Humidity: 83%
Wind Speed: SE 5.8 mph
Barometer 29.88 in
Dewpoint: 41.0 F
Visibility: 10.00 mi
Precip: --
Heat Index: NA
Wind Chill: 43 F
Current conditions at:

Scottsdale Airport, AZ (KSDL)

Lat: 33.61235 Lon: 111.92316

Local Radar Image active severe weather and emergency alerts image image weather storm and storm spotter reports image weather observation monitoring service image
Local
Radar
Active
Alerts
Storm Reports Obs
Monitoring

Sign-up For Email & Text Message Weather Alert Notification Services


Advertise Here

Observation History for Scottsdale Airport, AZ


Time Wind
(mph)
Vis
(mi)
Weather Precip (in) Temperature (F) Relative
Humidity
Wind
Chill
(F)
Heat
Index
(F)
Pressure
Air Dwpt altimeter
(in)
sea level
(mb)
Rmks
2:53 am MST SE 5.8 10.00 Overcast -- 46.0 41.0 83% 43 NA 29.88 1011.3
1:53 am MST E 5.8 10.00 Overcast 00.02 45.0 41.0 86% 42 NA 29.89 1011.6
12:53 am MST SE 5.8 10.00 Overcast -- 45.0 39.9 83% 42 NA 29.90 1011.9
11:53 pm MST E 6.9 10.00 Overcast -- 46.0 39.9 79% 42 NA 29.90 1012.0
10:53 pm MST E 4.6 10.00 Overcast -- 46.0 41.0 83% 44 NA 29.90 1011.9
9:53 pm MST SE 8.1 10.00 Overcast Trace 47.0 41.0 80% 43 NA 29.89 1011.6
8:53 pm MST SE 6.9 10.00 Overcast -- 47.0 41.0 80% 44 NA 29.89 1011.5
7:53 pm MST SE 6.9 10.00 Overcast -- 48.0 41.0 77% 45 NA 29.88 1011.2
6:53 pm MST N 0.0 10.00 Overcast -- 49.0 37.9 66% NA NA 29.87 1010.7
5:53 pm MST N 0.0 10.00 A Few Clouds -- 50.0 37.9 63% NA NA 29.85 1010.1
4:53 pm MST 3.5 10.00 Mostly Cloudy Trace 51.0 39.0 64% NA NA 29.83 1009.4
3:53 pm MST W 6.9 5.00 Rain 00.03 50.0 41.0 71% 47 NA 29.82 1009.1
2:53 pm MST SW 6.9 10.00 Partly Cloudy Trace 52.0 41.0 66% 50 NA 29.81 1008.7
1:53 pm MST S 6.9 10.00 Light Rain Trace 48.0 42.1 80% 45 NA 29.81 1008.8
12:53 pm MST SE 6.9 10.00 Mostly Cloudy Trace 51.0 43.0 74% 48 NA 29.81 1008.7
11:53 am MST SE 3.5 10.00 Overcast Trace 50.0 44.1 80% NA NA 29.85 1009.9
10:53 am MST 3.5 10.00 Light Rain Trace 49.0 44.1 83% NA NA 29.85 1010.1
9:53 am MST E 3.5 10.00 Overcast 00.03 48.0 44.1 86% NA NA 29.85 1009.9
8:53 am MST N 0.0 5.00 Light Rain 00.02 47.0 42.1 83% NA NA 29.84 1009.7
7:53 am MST NE 3.5 6.00 Light Rain Fog/Mist 00.13 46.0 42.1 86% NA NA 29.83 1009.4
6:53 am MST NW 3.5 10.00 Mostly Cloudy 00.07 46.0 42.1 86% NA NA 29.82 1009.0
5:53 am MST N 0.0 10.00 Thunderstorm in Vicinity -- 49.0 43.0 80% NA NA 29.80 1008.1
4:53 am MST E 3.5 10.00 Overcast -- 49.0 44.1 83% NA NA 29.81 1008.4
3:53 am MST N 0.0 10.00 Overcast 00.01 50.0 44.1 80% NA NA 29.83 1009.1

Regional Weather Observation


Phoenix, Phoenix Sky Harbor International Airport, AZ (KPHX)

Mostly Cloudy
48.0 F

Glendale, Glendale Municipal Airport, AZ (KGEU)

Mostly Cloudy
52.0 F

Luke Air Force Base / Phoenix, AZ (KLUF)

Mostly Cloudy
48.0 F

Scottsdale Airport, AZ (KSDL)

Overcast
46.0 F

Goodyear Municipal, AZ (KGYR)

Mostly Cloudy
52.0 F

Mesa / Falcon Field, AZ (KFFZ)

Mostly Cloudy
46.0 F